Weather History for KSTJ - December, 2011

Change the Weather History Date:

Wednesday, December 21, 2011

  Actual Average Record
Temperature  
Mean Temperature 37 °F 28 °F  
Max Temperature 46 °F 37 °F 63 °F (1941)
Min Temperature 28 °F 18 °F -17 °F (1989)
Degree Days  
Heating Degree Days 28 37  
Month to date heating degree days 644 722  
Since 1 July heating degree days 1606 1833  
Cooling Degree Days 0 0  
Month to date cooling degree days 0 0  
Year to date cooling degree days 494 1221  
Moisture  
Dew Point 31 °F    
Average Humidity 83    
Maximum Humidity 100    
Minimum Humidity 65    
Precipitation  
Precipitation 0.00 in 0.06 in 0.50 in (1949)
Month to date precipitation 2.24 1.07  
Year to date precipitation 20.05 35.15  
Sea Level Pressure  
Sea Level Pressure 29.84 in    
Wind  
Wind Speed 6 mph (SW)    
Max Wind Speed 15 mph    
Max Gust Speed 20 mph    
Visibility 8 miles    
Events      
T = Trace of Precipitation, MM = Missing Value Source: NWS Daily Summary

Daily Weather History Graph

Daily Weather History Graph

Search for Another Location

Airport or City:

Trip Planner

Search our weather history database for the weather conditions in past years. The results will help you decide how hot, cold, wet, or windy it might be!

Date:

Astronomy

Dec. 21, 2011 Rise Set
Actual Time 7:37 AM CST 4:58 PM CST
Civil Twilight 7:06 AM CST 5:28 PM CST
Nautical Twilight 6:32 AM CST 6:02 PM CST
Astronomical Twilight 5:59 AM CST 6:35 PM CST
Moon 4:11 AM CST (12/21) 2:18 PM CST (12/21)
Length of Visible Light 10h 22m
Length of Day
9h 21m
Waning Crescent, 12% of the Moon is Illuminated
Dec 21
Waning Crescent
Dec 24
New
Jan 1
First Quarter
Jan 9
Full
Jan 16
Last Quarter

Hourly Weather History & Observations

Time (CST) Temp. Windchill Dew Point Humidity Pressure Visibility Wind Dir Wind Speed Gust Speed Precip Events Conditions
12:38 AM 32.0 °F 26.4 °F 32.0 °F 100% 29.80 in 6.0 mi WNW 5.8 mph - N/A   Overcast
12:49 AM 32.0 °F 27.5 °F 32.0 °F 100% 29.80 in 6.0 mi WNW 4.6 mph - N/A   Overcast
12:53 AM 32.0 °F 25.6 °F 30.9 °F 96% 29.82 in 6.0 mi WNW 6.9 mph - N/A   Overcast
1:53 AM 32.0 °F 27.5 °F 30.9 °F 96% 29.82 in 6.0 mi West 4.6 mph - N/A   Overcast
2:33 AM 33.8 °F 29.6 °F 30.2 °F 87% 29.79 in 6.0 mi SW 4.6 mph - N/A   Overcast
2:53 AM 32.0 °F 28.7 °F 30.9 °F 96% 29.82 in 6.0 mi West 3.5 mph - N/A   Overcast
3:00 AM 33.8 °F - 30.2 °F 87% 29.80 in 7.0 mi Calm Calm - N/A   Overcast
3:53 AM 32.0 °F 27.5 °F 30.9 °F 96% 29.81 in 7.0 mi SW 4.6 mph - N/A   Overcast
4:53 AM 30.9 °F 26.2 °F 30.0 °F 96% 29.80 in 6.0 mi SW 4.6 mph - N/A   Scattered Clouds
5:53 AM 30.0 °F 22.4 °F 28.0 °F 92% 29.81 in 7.0 mi SSW 8.1 mph - N/A   Clear
6:53 AM 30.0 °F 21.7 °F 28.0 °F 92% 29.82 in 7.0 mi SSW 9.2 mph - N/A   Clear
7:53 AM 28.9 °F 21.9 °F 27.0 °F 92% 29.83 in 6.0 mi SSW 6.9 mph - N/A   Clear
8:53 AM 30.9 °F 23.5 °F 27.0 °F 85% 29.83 in 10.0 mi SSW 8.1 mph - N/A   Clear
9:53 AM 33.1 °F 24.4 °F 27.0 °F 78% 29.85 in 10.0 mi SSW 11.5 mph - N/A   Clear
10:53 AM 34.0 °F 25.0 °F 28.0 °F 79% 29.86 in 10.0 mi SSW 12.7 mph - N/A   Clear
11:53 AM 37.4 °F 31.4 °F 30.2 °F 75% 29.83 in 10.0 mi SSW 8.1 mph - N/A   Clear
12:53 PM 39.9 °F 33.4 °F 32.0 °F 73% 29.82 in 10.0 mi SW 10.4 mph - N/A   Clear
1:53 PM 43.0 °F 36.8 °F 34.0 °F 71% 29.81 in 10.0 mi SW 11.5 mph - N/A   Clear
2:53 PM 45.0 °F 40.6 °F 36.0 °F 71% 29.80 in 10.0 mi SW 8.1 mph - N/A   Clear
3:53 PM 46.0 °F 40.2 °F 36.0 °F 68% 29.81 in 10.0 mi SW 12.7 mph - N/A   Clear
4:53 PM 42.1 °F 37.7 °F 35.1 °F 76% 29.83 in 10.0 mi SW 6.9 mph - N/A   Clear
5:53 PM 39.9 °F 37.8 °F 35.1 °F 83% 29.84 in 10.0 mi South 3.5 mph - N/A   Clear
6:53 PM 33.1 °F - 30.9 °F 92% 29.87 in 10.0 mi Calm Calm - N/A   Clear
7:53 PM 30.9 °F 26.2 °F 28.9 °F 92% 29.91 in 10.0 mi North 4.6 mph - N/A   Clear
8:53 PM 30.9 °F - 30.0 °F 96% 29.93 in 10.0 mi Calm Calm - N/A   Clear
9:53 PM 30.0 °F 26.5 °F 30.0 °F 100% 29.96 in 10.0 mi South 3.5 mph - N/A   Clear
10:53 PM 30.0 °F - 28.9 °F 96% 29.98 in 10.0 mi Calm Calm - N/A   Clear
11:53 PM 30.0 °F - 28.0 °F 92% 29.99 in 10.0 mi Calm Calm - N/A   Clear